Regional Weather Roundup
Issued by NWS Goodland, KS

Home | Current Version | Previous Version | Text Only | Print | Product List | Glossary On
Versions: 1 2 3 4 5 6 7 8 9 10 11 12 13 14 15 16 17 18 19 20 21 22 23 24 25 26 27 28 29 30 31 32 33 34 35 36 37 38 39 40 41 42 43 44 45 46 47 48 49 50
000
ASUS43 KGLD 301359
RWRGLD

GOODLAND FORECAST AREA HOURLY WEATHER ROUNDUP
NATIONAL WEATHER SERVICE GOODLAND KS
800 AM MDT TUE MAY 30 2017

...OFFICIAL OBSERVATIONS...

CITY           SKY/WX    TMP DP  RH WIND       PRES   REMARKS
GOODLAND KS    SUNNY     60  51  72 NW9       30.15S
HILL CITY KS   SUNNY     68  53  58 W9        30.11S
IMPERIAL NEB   SUNNY     57  44  62 W6        30.16R
MCCOOK NEB     MOSUNNY   60  50  69 NW9       30.12S
AKRON CO       SUNNY     59  45  59 W6        30.20R
BURLINGTON CO  SUNNY     60  52  74 W8        30.18R
LIMON CO       SUNNY     56  50  80 NW3       30.22S
$$

...UNOFFICIAL OBSERVATIONS...

CITY           SKY/WX    TMP DP  RH WIND       PRES   REMARKS
NORTON KS      SUNNY     61  46  59 NW9       30.10S
SHARON SPRINGS   N/A     59  54  84 W5          N/A
TRENTON NEB      N/A     55  32  41 CALM        N/A
KIT CARSON CO    N/A     58  51  79 CALM        N/A
YUMA CO        FAIR      59  41  51 W7        30.17S
$$



USA.gov is the U.S. government's official web portal to all federal, state and local government web resources and services.